Weather History for Bainbridge, GA

Change the Weather History Date:

Monday, April 7, 2014

  Actual Average (KMAI) Record (KMAI)
Temperature  
Mean Temperature 73 °F 64 °F  
Max Temperature 78 °F 77 °F 88 °F (1999)
Min Temperature 68 °F 52 °F 39 °F (2007)
Degree Days  
Heating Degree Days 0    
Month to date heating degree days  
Since 1 July heating degree days  
Cooling Degree Days 8    
Month to date cooling degree days  
Year to date cooling degree days  
Growing Degree Days 23 (Base 50)    
Moisture  
Dew Point 70 °F    
Average Humidity 91    
Maximum Humidity 100    
Minimum Humidity 74    
Precipitation  
Precipitation 0.00 in 0.15 in 2.48 in (2014)
Month to date precipitation 1.17  
Year to date precipitation 16.69  
Sea Level Pressure  
Sea Level Pressure 29.79 in    
Wind  
Wind Speed 9 mph (South)    
Max Wind Speed 24 mph    
Max Gust Speed 45 mph    
Visibility 9 miles    
Events Rain , Thunderstorm    
T = Trace of Precipitation, MM = Missing Value Source: NWS Daily Summary

Daily Weather History Graph

Daily Weather History Graph

Search for Another Location

Airport:

Trip Planner

Search our weather history database for the weather conditions in past years. The results will help you decide how hot, cold, wet, or windy it might be!

Date:

Astronomy

Apr. 07, 2014 Rise Set
Actual Time 7:20 AM EDT 8:01 PM EDT
Civil Twilight 6:55 AM EDT 8:26 PM EDT
Nautical Twilight 6:26 AM EDT 8:54 PM EDT
Astronomical Twilight 5:57 AM EDT 9:24 PM EDT
Moon 1:25 PM EDT (4/7) 2:27 AM EDT (4/7)
Length of Visible Light 13h 30m
Length of Day
12h 41m
First Quarter, 53% of the Moon is Illuminated
Apr 7
First Quarter
Apr 15
Full
Apr 22
Last Quarter
Apr 29
New
May 6
First Quarter

Hourly Weather History & Observations

Time (EDT) Temp. Dew Point Humidity Pressure Visibility Wind Dir Wind Speed Gust Speed Precip Events Conditions
12:15 AM 71.6 °F 69.8 °F 94% 29.89 in 10.0 mi SE 8.1 mph - N/A   Clear
12:35 AM 71.6 °F 69.8 °F 94% 29.89 in 10.0 mi SE 9.2 mph - N/A   Clear
1:15 AM 71.6 °F 68.0 °F 88% 29.89 in 10.0 mi SSE 8.1 mph - N/A   Scattered Clouds
1:35 AM 71.6 °F 69.8 °F 94% 29.88 in 10.0 mi SSE 5.8 mph - N/A   Mostly Cloudy
1:55 AM 71.6 °F 69.8 °F 94% 29.87 in 10.0 mi SSE 8.1 mph - N/A   Overcast
2:15 AM 71.6 °F 69.8 °F 94% 29.86 in 10.0 mi SSE 8.1 mph - N/A   Overcast
2:35 AM 71.6 °F 69.8 °F 94% 29.86 in 10.0 mi SE 11.5 mph - N/A   Overcast
2:55 AM 71.6 °F 69.8 °F 94% 29.85 in 10.0 mi SSE 8.1 mph - N/A   Scattered Clouds
3:15 AM 69.8 °F 68.0 °F 94% 29.84 in 10.0 mi SSE 8.1 mph - N/A   Scattered Clouds
3:35 AM 69.8 °F 68.0 °F 94% 29.83 in 10.0 mi SSE 5.8 mph - N/A   Scattered Clouds
3:55 AM 69.8 °F 68.0 °F 94% 29.83 in 10.0 mi SSE 9.2 mph - N/A   Scattered Clouds
4:15 AM 71.6 °F 69.8 °F 94% 29.83 in 10.0 mi SSE 5.8 mph - N/A   Scattered Clouds
4:35 AM 71.6 °F 69.8 °F 94% 29.83 in 10.0 mi SSE 6.9 mph - N/A   Mostly Cloudy
4:55 AM 71.6 °F 69.8 °F 94% 29.84 in 10.0 mi SSE 8.1 mph - N/A   Mostly Cloudy
5:15 AM 71.6 °F 69.8 °F 94% 29.83 in 10.0 mi SSE 8.1 mph - N/A   Mostly Cloudy
5:35 AM 71.6 °F 68.0 °F 88% 29.83 in 10.0 mi SSE 6.9 mph - N/A   Mostly Cloudy
5:55 AM 71.6 °F 68.0 °F 88% 29.82 in 10.0 mi SSE 9.2 mph - N/A   Overcast
6:15 AM 71.6 °F 68.0 °F 88% 29.81 in 10.0 mi SE 5.8 mph - N/A   Overcast
6:35 AM 71.6 °F 69.8 °F 94% 29.82 in 10.0 mi SE 6.9 mph - N/A   Overcast
6:55 AM 71.6 °F 69.8 °F 94% 29.81 in 10.0 mi SSE 11.5 mph - N/A   Overcast
7:15 AM 69.8 °F 68.0 °F 94% 29.80 in 10.0 mi SE 12.7 mph - N/A   Mostly Cloudy
7:35 AM 69.8 °F 68.0 °F 94% 29.78 in 10.0 mi SSE 13.8 mph - N/A   Mostly Cloudy
8:15 AM 71.6 °F 68.0 °F 88% 29.78 in 10.0 mi SSE 13.8 mph 19.6 mph N/A   Scattered Clouds
8:35 AM 73.4 °F 69.8 °F 88% 29.77 in 10.0 mi SSE 13.8 mph 25.3 mph N/A   Clear
8:55 AM 73.4 °F 69.8 °F 88% 29.78 in 10.0 mi SSE 9.2 mph 16.1 mph N/A   Clear
9:15 AM 73.4 °F 69.8 °F 88% 29.78 in 10.0 mi South 9.2 mph - N/A   Clear
9:35 AM 73.4 °F 68.0 °F 83% 29.78 in 10.0 mi South 8.1 mph - N/A   Scattered Clouds
9:55 AM 77.0 °F 69.8 °F 78% 29.79 in 10.0 mi South 10.4 mph 16.1 mph N/A   Scattered Clouds
10:15 AM 77.0 °F 68.0 °F 74% 29.79 in 10.0 mi South 9.2 mph 16.1 mph N/A   Clear
10:35 AM 77.0 °F 68.0 °F 74% 29.80 in 10.0 mi South 10.4 mph - N/A   Clear
10:55 AM 77.0 °F 69.8 °F 78% 29.79 in 10.0 mi South 11.5 mph - N/A   Clear
11:15 AM 77.0 °F 69.8 °F 78% 29.78 in 10.0 mi South 11.5 mph - N/A Thunderstorm Clear
11:35 AM 77.0 °F 69.8 °F 78% 29.79 in 10.0 mi South 11.5 mph 16.1 mph N/A Thunderstorm Clear
11:55 AM 78.8 °F 71.6 °F 78% 29.79 in 10.0 mi South 11.5 mph 18.4 mph N/A Thunderstorm Scattered Clouds
12:15 PM 78.8 °F 71.6 °F 78% 29.79 in 10.0 mi South 15.0 mph 19.6 mph N/A Thunderstorm Scattered Clouds
12:35 PM 78.8 °F 71.6 °F 78% 29.78 in 10.0 mi South 10.4 mph 21.9 mph N/A Thunderstorm Thunderstorm
12:55 PM 78.8 °F 71.6 °F 78% 29.78 in 10.0 mi South 11.5 mph 17.3 mph N/A Rain , Thunderstorm Light Thunderstorms and Rain
1:15 PM 78.8 °F 73.4 °F 83% 29.80 in 7.0 mi West 10.4 mph 18.4 mph N/A Rain , Thunderstorm Heavy Thunderstorms and Rain
1:35 PM 69.8 °F 68.0 °F 94% 29.81 in 1.0 mi NW 13.8 mph 21.9 mph N/A Rain , Thunderstorm Heavy Thunderstorms and Rain
1:55 PM 68.0 °F 66.2 °F 94% 29.83 in 1.8 mi West 24.2 mph 44.9 mph N/A Rain , Thunderstorm Heavy Thunderstorms and Rain
2:15 PM 68.0 °F 66.2 °F 94% 29.78 in 1.0 mi West 23.0 mph 36.8 mph N/A Rain , Thunderstorm Heavy Thunderstorms and Rain
2:35 PM 68.0 °F 68.0 °F 100% 29.79 in 2.5 mi WSW 16.1 mph 21.9 mph N/A Rain , Thunderstorm Heavy Thunderstorms and Rain
2:55 PM 68.0 °F 68.0 °F 100% 29.78 in 3.0 mi WSW 10.4 mph - N/A Rain , Thunderstorm Heavy Thunderstorms and Rain
3:15 PM 68.0 °F 68.0 °F 100% 29.76 in 3.0 mi WSW 4.6 mph - N/A Rain , Thunderstorm Heavy Thunderstorms and Rain
3:35 PM 68.0 °F 68.0 °F 100% 29.76 in 3.0 mi South 6.9 mph - N/A Rain , Thunderstorm Heavy Thunderstorms and Rain
3:55 PM 68.0 °F 68.0 °F 100% 29.74 in 4.0 mi SSE 9.2 mph - N/A Rain Rain
4:15 PM 69.8 °F 68.0 °F 94% 29.72 in 5.0 mi SSE 3.5 mph - N/A Rain Rain
4:35 PM 71.6 °F 69.8 °F 94% 29.72 in 10.0 mi SSW 4.6 mph - N/A Rain , Thunderstorm Light Thunderstorms and Rain
4:55 PM 71.6 °F 69.8 °F 94% 29.70 in 10.0 mi SSE 9.2 mph - N/A Rain Light Rain
5:15 PM 71.6 °F 69.8 °F 94% 29.71 in 10.0 mi South 6.9 mph - N/A   Scattered Clouds
5:35 PM 73.4 °F 71.6 °F 94% 29.71 in 10.0 mi South 6.9 mph - N/A   Scattered Clouds
5:55 PM 73.4 °F 71.6 °F 94% 29.72 in 10.0 mi SSW 4.6 mph - N/A   Clear
6:15 PM 73.4 °F 71.6 °F 94% 29.72 in 10.0 mi SSW 3.5 mph - N/A   Clear
6:35 PM 73.4 °F 71.6 °F 94% 29.72 in 10.0 mi SW 4.6 mph - N/A   Mostly Cloudy
6:55 PM 73.4 °F 71.6 °F 94% 29.73 in 10.0 mi SSW 6.9 mph - N/A   Mostly Cloudy
7:15 PM 73.4 °F 71.6 °F 94% 29.74 in 10.0 mi SSW 9.2 mph - N/A   Overcast
7:35 PM 73.4 °F 71.6 °F 94% 29.73 in 10.0 mi SSW 5.8 mph - N/A   Overcast
7:55 PM 73.4 °F 71.6 °F 94% 29.74 in 10.0 mi SW 5.8 mph - N/A   Overcast
8:15 PM 73.4 °F 71.6 °F 94% 29.74 in 10.0 mi SSW 4.6 mph - N/A   Overcast
8:35 PM 73.4 °F 71.6 °F 94% 29.73 in 10.0 mi South 3.5 mph - N/A   Mostly Cloudy
8:55 PM 73.4 °F 71.6 °F 94% 29.75 in 10.0 mi South 5.8 mph - N/A   Clear
9:15 PM 71.6 °F 69.8 °F 94% 29.76 in 10.0 mi South 5.8 mph - N/A Rain Light Rain
9:35 PM 71.6 °F 69.8 °F 94% 29.76 in 10.0 mi South 6.9 mph - N/A Rain Light Rain
9:55 PM 71.6 °F 69.8 °F 94% 29.79 in 10.0 mi SSW 6.9 mph - N/A   Mostly Cloudy
10:15 PM 71.6 °F 69.8 °F 94% 29.79 in 10.0 mi SSW 6.9 mph - N/A Rain Light Rain
10:35 PM 71.6 °F 69.8 °F 94% 29.78 in 10.0 mi South 6.9 mph - N/A   Scattered Clouds
10:55 PM 71.6 °F 69.8 °F 94% 29.76 in 10.0 mi SSE 3.5 mph - N/A   Mostly Cloudy
11:15 PM 71.6 °F 69.8 °F 94% 29.77 in 10.0 mi South 4.6 mph - N/A   Mostly Cloudy
11:35 PM 71.6 °F 69.8 °F 94% 29.77 in 10.0 mi SW 4.6 mph - N/A   Scattered Clouds
11:55 PM 71.6 °F 69.8 °F 94% 29.77 in 7.0 mi SW 4.6 mph - N/A   Scattered Clouds